Hourly Data Report for October 02, 2017

All times are specified in Local Standard Time (LST). Add 1 hour to adjust for Daylight Saving Time where and when it is observed.

RANKIN INLET A
NUNAVUT

62°48'38.000" N
92°06'53.000" W
32.30 m
2303405
71083
YRT

Download Data

Hourly Data (October 2017)
Hourly Data Report for October 2, 2017
Temp Definition
°C
Dew Point Temp Definition
°C
Rel Hum Definition
%
Wind Dir Definition
10's deg

Wind Spd Definition
km/h
Visibility Definition
km
Stn Press Definition
kPa
Hmdx Definition


Wind Chill Definition


Weather Definition


TIME
00:00 Legend Double Dagger 4.9 3.0 88 18 38 16.1 101.09     Cloudy
01:00 Legend Double Dagger 5.0 3.2 88 18 44 24.1 101.02     LegendNANA
02:00 Legend Double Dagger 5.1 3.6 90 20 28 24.1 100.96     LegendNANA
03:00 Legend Double Dagger 5.0 3.8 92 19 30 16.1 100.86     Cloudy
04:00 Legend Double Dagger 4.8 4.2 95 20 22 16.1 100.81     LegendNANA
05:00 Legend Double Dagger 4.8 4.3 97 19 29 4.8 100.72     Fog
06:00 Legend Double Dagger 4.9 4.4 97 19 23 4.8 100.64     Rain Showers,Fog
07:00 Legend Double Dagger 4.9 4.5 97 20 17 4.8 100.58     Rain Showers,Fog
08:00 Legend Double Dagger 4.9 4.6 98 21 18 3.2 100.52     Rain,Fog
09:00 Legend Double Dagger 4.8 4.6 98 24 15 3.2 100.43     Moderate Rain,Fog
10:00 Legend Double Dagger 4.4 4.2 99 31 17 4.8 100.39     Rain,Fog
11:00 Legend Double Dagger 1.9 1.4 96 34 45 6.4 100.35     Rain,Fog
12:00 Legend Double Dagger 1.2 0.5 95 34 42 6.4 100.36     Rain
13:00 Legend Double Dagger 0.2 -0.3 96 35 47 1.6 100.37     Snow,Blowing Snow
14:00 Legend Double Dagger 0.1 -1.6 88 35 47 16.1 100.33     LegendNANA
15:00 Legend Double Dagger -0.1 -1.4 90 34 46 4.8 100.41   -8 Snow Showers
16:00 Legend Double Dagger -0.3 -2.0 88 35 46 16.1 100.45   -8 LegendNANA
17:00 Legend Double Dagger -0.2 -1.9 88 34 34 16.1 100.51   -7 LegendNANA
18:00 Legend Double Dagger -0.5 -2.2 88 33 29 24.1 100.55   -7 Mostly Cloudy
19:00 Legend Double Dagger -0.8 -2.4 89 32 18 24.1 100.50   -6 LegendNANA
20:00 Legend Double Dagger -0.6 -2.4 88 30 24 24.1 100.48   -7 LegendNANA
21:00 Legend Double Dagger -0.1 -1.6 89 30 28 24.1 100.48   -6 Cloudy
22:00 Legend Double Dagger -0.5 -2.2 88 31 31 24.1 100.48   -7 LegendNANA
23:00 Legend Double Dagger -1.0 -3.5 83 31 31 24.1 100.46   -8 LegendNANA

Notes on Data Quality.

Legend

  • E = Estimated
  • M = Missing
  • NA = Not Available
  • ‡ = Partner data that is not subject to review by the National Climate Archives
Date modified: